Location: Bad-Schwarzsee
(46.6711°N, 7.2902°E)
Time: 12:52:07
(UTC+00:00)

Daily predictions for brighter satellites

Satellite Brightness Start Highest point End
(mag) Time Altitude Azimuth Time Altitude Azimuth Time Altitude Azimuth
Gbstr 26 Del rocket 4.0 16:50:15 10° WNW 16:55:55 71° NNE 17:02:56 10° ESE
Meteor 1-16 Rocket 4.3 16:53:27 10° S 16:58:49 56° E 17:04:04 10° NNE
Cosmos 2239 Rocket 4.5 16:53:05 10° N 16:59:16 79° E 17:05:25 10° SSE
Envisat 3.3 16:55:06 10° SE 16:59:57 46° ENE 17:04:48 10° N
Cosmos 1726 2.5 16:57:37 10° SSE 17:01:02 40° E 17:04:28 10° NNE
Cosmos 1908 4.1 16:58:17 10° SSE 17:01:38 28° E 17:05:01 10° NNE
Cosmos 2278 Rocket 2.8 16:56:48 10° S 17:01:57 37° ESE 17:07:09 10° NE
Cosmos 1953 Rocket 3.5 16:59:00 10° N 17:03:25 87° E 17:07:44 10° S
Okean-O 2.6 16:59:30 10° SSE 17:03:54 72° ENE 17:08:21 10° N
Falcon 9 debris 3.6 17:01:49 10° NW 17:05:09 45° NNE 17:08:29 10° E
Unknown 3.9 17:02:07 10° NW 17:05:29 40° NNE 17:08:49 10° E
BREEZE-M DEB (TANK) 4.2 17:00:12 10° SW 17:05:35 29° SSE 17:08:07 10° E
Meteor 1-11 4.5 17:02:56 10° N 17:08:35 51° ENE 17:14:13 10° SSE
Cosmos 1844 4.2 17:03:22 10° SW 17:09:03 68° WNW 17:14:52 10° NNE
Cosmos 1821 Rocket 4.2 17:03:02 10° N 17:09:10 80° W 17:15:20 10° S
Cosmos 1356 3.5 17:05:57 10° S 17:09:18 52° E 17:12:40 10° NNE
Cosmos 1605 Rocket 4.2 17:03:56 10° N 17:09:53 46° ENE 17:15:43 10° SSE
Cosmos 1953 3.1 17:06:46 10° SSW 17:10:47 57° WNW 17:14:48 10° N
Cosmos 1934 Rocket 4.0 17:06:35 10° N 17:12:57 73° E 17:19:18 10° SSE
Cosmos 1606 Rocket 4.0 17:09:25 10° SSW 17:13:45 67° W 17:18:06 10° N
CSL-04 Rocket 4.1 17:10:04 10° SE 17:15:11 41° ENE 17:20:18 10° N
USA 238 DEB 4.2 17:10:43 10° S 17:16:46 38° ESE 17:22:59 10° NE
USA 238 4.2 17:10:51 10° S 17:16:52 37° ESE 17:23:04 10° NE
COBE Rocket 4.0 17:15:10 10° NNE 17:20:18 63° E 17:25:17 10° S
Meteor 2-10 3.9 17:15:22 10° S 17:20:22 66° E 17:25:23 10° NNE
Unknown 3.4 17:23:49 10° NW 17:27:16 53° NNE 17:30:03 15° E
YAOGAN 6 2.6 17:27:27 10° SSE 17:31:01 55° ENE 17:34:34 10° N
Cosmos 292 Rocket 3.9 17:27:06 10° SSW 17:31:51 79° WNW 17:36:39 10° NNE
Cosmos 2058 4.2 17:30:50 10° NNE 17:34:07 22° ENE 17:36:43 13° ESE
Cosmos 1833 Rocket 2.6 17:28:32 10° NNW 17:34:09 69° ENE 17:39:45 10° SE
Cosmos 1812 Rocket 4.2 17:30:30 10° SSE 17:34:26 32° E 17:38:25 10° NNE
Unknown 4.5 17:31:13 10° WNW 17:34:44 33° N 17:37:14 16° ENE
NOSS 3-2 (A) 3.8 17:34:34 10° S 17:39:54 41° ESE 17:45:52 10° NE
Ariane Rocket 3.6 17:38:08 10° SE 17:42:41 34° ENE 17:47:16 10° N
Cosmos 1328 4.4 17:39:01 10° NNW 17:42:55 59° W 17:46:48 10° S
SKYMED 2 3.5 17:39:58 10° NNE 17:44:21 79° ESE 17:48:41 10° S
YAOGAN 1 2.5 17:40:56 10° SSE 17:45:12 66° ENE 17:49:31 10° N
Cosmos 1300 3.2 17:49:32 10° SSE 17:53:02 35° E 17:56:33 10° NNE
Cosmos 1939 Rocket 3.2 17:50:12 10° SE 17:53:58 42° ENE 17:57:50 10° N
Shenzhou-11 Module 3.9 17:52:41 10° WSW 17:54:52 20° SSW 17:56:18 14° SSE
Cosmos 2100 Rocket 4.3 17:49:03 10° N 17:54:54 42° ENE 18:00:42 10° SE
Unknown 4.4 17:52:42 10° WNW 17:56:20 35° N 17:57:58 24° ENE
Abrixas rocket 1.9 17:53:27 10° WSW 17:56:33 83° N 17:57:37 37° ENE
CZ-2D R/B 3.4 17:53:26 10° SSE 17:57:09 49° ENE 18:00:55 10° N
Cosmos 1937 Rocket 4.5 17:53:40 10° N 17:57:59 26° NE 17:59:13 24° ENE
CSL-04 Debris 4.3 17:58:01 10° SSE 18:03:29 83° WSW 18:09:01 10° NNW
ADEOS Rocket 4.3 17:58:57 10° NE 18:04:53 24° E 18:10:28 10° SE
Cosmos 2082 Rocket 2.1 17:59:19 10° NNW 18:05:04 82° ENE 18:10:45 10° SSE
NOSS 3-2 (C) 3.7 18:00:19 10° S 18:05:39 41° ESE 18:09:34 20° ENE
BREEZE-M DEB (TANK) 4.0 18:01:41 10° WNW 18:06:16 81° SSW 18:18:49 13° ESE
Cosmos 1153 Rocket 4.4 18:03:48 10° N 18:09:59 84° E 18:16:08 10° S
ASTEX 1 4.4 18:05:14 10° N 18:10:02 50° WNW 18:14:50 10° SSW
USA 116 3.3 18:07:14 10° NNE 18:10:28 83° WNW 18:13:58 10° SSW
Cosmos 2016 Rocket 4.5 18:06:25 10° N 18:12:14 38° ENE 18:15:25 24° ESE
Unknown 3.6 18:14:57 10° WNW 18:18:18 56° SW 18:19:12 40° SSE
Cosmos 1461 4.1 18:16:35 10° NW 18:20:27 40° WSW 18:24:25 10° S
Meteor 2-1 Rocket 4.2 18:18:37 10° S 18:23:58 55° E 18:29:24 10° NNE
Lacrosse 5 2.2 18:19:40 10° NW 18:24:41 64° SW 18:27:31 25° SSE
CZ-4 R/B 3.1 18:21:09 10° SSW 18:25:01 36° W 18:28:57 10° NNW
SJ 16-02 2.1 18:22:19 10° N 18:25:44 34° NE 18:25:44 34° NE
SPOT 3 Rocket 4.2 18:26:38 34° ENE 18:26:38 34° ENE 18:31:09 10° N
FALCON 9 DEB 3.6 18:24:05 10° WNW 18:27:30 56° SW 18:27:59 50° S
In-Cosmos 22 Rocket 4.0 18:23:27 10° N 18:28:51 66° ENE 18:32:45 20° SSE
ATLAS CENTAUR R/B 3.7 18:27:59 10° N 18:30:12 14° NNE 18:30:12 14° NNE
COSMO-SKYMED 1 4.3 18:28:22 10° N 18:32:19 34° WNW 18:36:14 10° SW
ATLAS 3B R/B 2.8 18:26:55 10° S 18:33:15 45° ESE 18:35:04 37° E
Cosmos 2084 Rocket 3.6 18:30:16 10° NW 18:34:42 71° SW 18:36:05 41° SSE
ATLAS 5 CENTAUR R/B 4.3 18:32:51 10° NW 18:35:32 15° NNW 18:38:24 10° NNE
Unknown 3.6 18:36:18 10° WNW 18:39:39 63° NNW 18:39:39 63° NNW
CENTAUR R/B 2.6 18:35:14 10° SSW 18:40:56 52° ESE 18:42:35 42° ENE
Falcon 9 debris 4.2 18:38:55 10° WNW 18:42:09 38° SW 18:42:11 38° SW
H-2A R/B 2.7 18:42:58 39° NE 18:42:58 39° NE 18:47:23 10° N
Unknown 3.9 18:39:23 10° WNW 18:42:37 49° SW 18:42:37 49° SW
Cosmos 1459 Rocket 3.9 18:38:24 10° N 18:44:41 89° E 18:51:00 10° S
Cosmos 2278 Rocket 3.5 18:40:42 10° WSW 18:46:01 40° NW 18:51:21 10° NNE
Cosmos 2061 Rocket 3.9 18:40:05 10° N 18:46:20 69° E 18:49:21 32° SSE
SJ-11-01 4.1 18:46:45 68° ENE 18:46:45 68° ENE 18:51:22 10° N
Cosmos 1898 Rocket 3.4 18:43:23 10° NNW 18:48:41 85° ENE 18:50:02 52° SSE
Cosmos 2297 3.6 18:43:55 10° SSW 18:49:37 83° ESE 18:53:21 23° NNE
Cosmos 1766 Rocket 4.4 18:45:51 10° N 18:48:34 36° NNE 18:48:34 36° NNE
Okean 3 Rocket 3.7 18:55:52 10° NNW 19:00:14 77° WNW 19:00:14 77° WNW
Resurs 01 Rocket 4.1 19:06:08 11° N 19:06:08 11° N 19:06:25 10° N
ARGOS 3.6 19:05:12 46° NNE 19:05:12 46° NNE 19:09:20 10° N
USA 238 DEB 4.2 19:00:53 10° WSW 19:07:28 56° NW 19:12:35 19° NNE
USA 238 4.2 19:00:59 10° WSW 19:07:34 56° NW 19:12:38 19° NNE
Cosmos 44 3.4 19:05:07 10° SW 19:09:47 69° WNW 19:09:47 69° WNW
Cosmos 2058 4.4 19:07:16 10° NNW 19:11:10 36° W 19:12:59 24° SW
Cosmos 2173 Rocket 4.5 19:06:50 10° NNW 19:12:56 57° W 19:18:55 10° S
Cosmos 1864 Rocket 4.3 19:12:17 10° N 19:18:28 90° E 19:18:59 77° S
Ariane Rocket 4.5 19:16:59 10° SSW 19:21:37 35° W 19:26:16 10° NNW
Cosmos 1802 Rocket 4.5 19:15:18 10° NNW 19:21:38 61° W 19:26:33 17° SSW
Cosmos 2151 4.4 19:18:09 10° NNW 19:20:43 33° NNW 19:20:43 33° NNW
Cosmos 2123 Rocket 3.9 19:19:08 10° S 19:25:27 88° W 19:31:45 10° N
Cosmos 468 Rocket 4.5 19:23:06 10° SW 19:28:18 59° WNW 19:28:19 59° WNW
NOSS 3-2 (A) 4.3 19:24:59 10° WSW 19:30:40 46° NW 19:33:48 28° NNE
Cosmos 2233 Rocket 4.4 19:28:13 10° N 19:32:56 52° N 19:32:56 52° N
Cosmos 1725 Rocket 4.1 19:29:17 10° NNW 19:35:34 70° W 19:36:07 66° SW
CZ-2C R/B 4.3 19:38:10 39° N 19:38:10 39° N 19:41:42 10° N
Cosmos 1937 Rocket 4.4 19:35:15 10° NNW 19:39:25 45° WNW 19:39:25 45° WNW
ADEOS Rocket 3.5 19:43:28 10° NNE 19:51:09 77° WNW 19:58:13 10° SSW
NOSS 3-2 (C) 4.3 19:50:45 10° WSW 19:56:28 47° NW 19:57:05 46° NNW
SJ 16-02 4.0 20:01:14 10° NW 20:02:46 18° WNW 20:02:46 18° WNW
ATLAS CENTAUR R/B 4.5 20:06:00 10° NNW 20:06:23 12° NNW 20:06:23 12° NNW
H-2A R/B 4.1 20:23:36 26° WNW 20:23:36 26° WNW 20:26:37 10° NNW
ATLAS 3B R/B 3.7 20:17:31 10° WSW 20:22:24 40° WNW 20:22:24 40° WNW
CENTAUR R/B 3.9 20:25:54 10° WSW 20:29:51 34° WNW 20:29:51 34° WNW
